This is the latest recevied weather packets stored in our database for station/object S57D-6. If no packets are shown the sender has not sent any weather packets the latest 10 day(s).
| Time | Temp. | Humidity | Pressure | Rain* | Wind** | Luminosity | Snow |
|---|---|---|---|---|---|---|---|
| 1777975041 | 17.78° C | 59% | 1013.5 hPa | 0 mm | - | - | - |
| 1777974740 | 17.78° C | 58% | 1013.5 hPa | 0 mm | - | - | - |
| 1777974440 | 17.78° C | 58% | 1013.4 hPa | 0 mm | - | - | - |
| 1777974139 | 17.78° C | 59% | 1013.4 hPa | 0 mm | - | - | - |
| 1777973840 | 17.78° C | 59% | 1013.2 hPa | 0 mm | - | - | - |
| 1777973539 | 17.78° C | 60% | 1013.2 hPa | 0 mm | - | - | - |
| 1777973240 | 18.33° C | 61% | 1013.3 hPa | 0 mm | - | - | - |
| 1777972938 | 18.33° C | 61% | 1013.2 hPa | 0 mm | - | - | - |
| 1777972639 | 18.33° C | 61% | 1013.2 hPa | 0 mm | - | - | - |
| 1777972338 | 18.89° C | 61% | 1013.2 hPa | 0 mm | - | - | - |
| 1777972039 | 18.89° C | 61% | 1013.1 hPa | 0 mm | - | - | - |
| 1777971737 | 18.89° C | 61% | 1013 hPa | 0 mm | - | - | - |
| 1777971137 | 19.44° C | 59% | 1012.9 hPa | 0 mm | - | - | - |
| 1777970837 | 20° C | 59% | 1012.9 hPa | 0 mm | - | - | - |
| 1777970536 | 19.44° C | 61% | 1012.9 hPa | 0 mm | - | - | - |
| 1777970238 | 18.89° C | 62% | 1012.9 hPa | 0 mm | - | - | - |
| 1777969936 | 18.89° C | 61% | 1012.9 hPa | 0 mm | - | - | - |
| 1777969636 | 18.33° C | 61% | 1012.9 hPa | 0 mm | - | - | - |
| 1777969335 | 18.33° C | 61% | 1012.9 hPa | 0 mm | - | - | - |
| 1777969035 | 18.33° C | 61% | 1013 hPa | 0 mm | - | - | - |
| 1777968803 | 18.33° C | 62% | 1012.9 hPa | 0 mm | - | - | - |
| 1777968735 | 18.33° C | 62% | 1012.9 hPa | 0 mm | - | - | - |
| 1777968435 | 18.33° C | 62% | 1013 hPa | 0 mm | - | - | - |
| 1777968136 | 18.33° C | 61% | 1013 hPa | 0 mm | - | - | - |
| 1777968134 | 18.33° C | 61% | 1013 hPa | 0 mm | - | - | - |
* Rain latest hour (hover to see other rain measurements)
** Current wind speed in m/s (hover to see current wind gust speed)